Flag for Albania Weather past 2 weeks in Durrës, Albania

Now
52 °F

Broken clouds.


Feels Like: 50 °F
Forecast: 49 / 57 °F
Wind: 6 mph from South

Location: Tirana Airport


UV Index: 0 (Low)

Visibility: N/A


Pressure: 29.80 "Hg

Humidity: 62%

Dew point: 39 °F

Location of DurrësLocation

Historic Weather in Durrës

°F

Durrës temperature yesterday

Maximum temperature yesterday: 52 °F (at 12:20 AM)
Minimum temperature yesterday: 45 °F (at 6:20 AM)
Average temperature yesterday: 47 °F

Past Weeks' High & Low Weather Summary

 TemperatureHumidityPressure
High73 °F (Apr 7, 1:50 PM)94% (Apr 2, 9:50 PM)30.09 "Hg (Apr 2, 9:50 PM)
Low39 °F (Apr 12, 4:20 AM)26% (Apr 10, 3:20 PM)29.65 "Hg (Apr 16, 4:50 AM)
Average55 °F72%29.93 "Hg
* Reported Apr 2 8:20 AM — Apr 17 8:20 AM, Durrës, Weather by CustomWeather, © 2014

Note: Actual official high and low records may vary slightly from our data, if they occured in-between our weather recording intervals... More about our weather records

Advertising

Historic Weather Conditions — Data for Previous 24 hours

 ConditionsComfort  
Time TempWeatherWind HumidityBarometerVisibility
8:20 AM
Apr 17
50 °FBroken clouds.5 mph76%29.80 "HgN/A
7:50 AM48 °FBroken clouds.2 mph87%29.80 "HgN/A
7:20 AM46 °FBroken clouds.No wind93%29.80 "HgN/A
6:50 AM45 °FPartly cloudy.2 mph93%29.80 "HgN/A
6:20 AM45 °FPassing clouds.3 mph93%29.80 "HgN/A
5:50 AM45 °FPartly cloudy.2 mph93%29.80 "HgN/A
5:20 AM45 °FPartly cloudy.No wind87%29.77 "Hg5 mi
4:50 AM45 °FPartly cloudy.No wind93%29.77 "HgN/A
4:20 AM45 °FPartly cloudy.3 mph93%29.77 "HgN/A
3:50 AM45 °FPartly cloudy.No wind93%29.80 "HgN/A
3:20 AM45 °FThundershowers. Mostly cloudy.2 mph93%29.80 "HgN/A
2:50 AM45 °FMostly cloudy.No wind93%29.80 "HgN/A
2:20 AM45 °FMostly cloudy.No wind93%29.80 "HgN/A
1:50 AM45 °FMostly cloudy.No wind93%29.80 "HgN/A
1:20 AM45 °FMostly cloudy.No wind93%29.83 "HgN/A
12:50 AM45 °FPartly cloudy.2 mph87%29.83 "HgN/A
12:20 AM45 °FPartly cloudy.2 mph93%29.83 "HgN/A
11:50 PM
Apr 16
45 °FPartly cloudy.2 mph87%29.83 "HgN/A
11:20 PM45 °FPassing clouds.5 mph87%29.83 "HgN/A
10:50 PM45 °FPartly cloudy.6 mph87%29.83 "HgN/A
10:20 PM45 °FMostly cloudy.2 mph81%29.83 "HgN/A
9:50 PM45 °FMostly cloudy.3 mph81%29.83 "HgN/A
9:20 PM45 °FLight rain. Mostly cloudy.2 mph81%29.83 "HgN/A
8:50 PM45 °FLight rain. Mostly cloudy.2 mph87%29.83 "HgN/A
8:20 PM45 °FLight rain. More clouds than sun.5 mph81%29.83 "HgN/A
7:50 PM45 °FLight rain. More clouds than sun.5 mph81%29.80 "HgN/A
7:20 PM45 °FLight rain. Mostly cloudy.8 mph81%29.80 "HgN/A
6:50 PM45 °FLight rain. Cloudy.7 mph76%29.80 "HgN/A
6:20 PM46 °FMostly cloudy.8 mph71%29.77 "HgN/A
5:50 PM46 °FMore clouds than sun.10 mph71%29.77 "HgN/A
5:20 PM46 °FLight rain. Mostly cloudy.10 mph76%29.77 "HgN/A
4:50 PM46 °FLight rain. Mostly cloudy.6 mph76%29.77 "HgN/A
4:20 PM48 °FLight rain. Mostly cloudy.5 mph71%29.77 "HgN/A
3:50 PM48 °FLight rain. Mostly cloudy.8 mph66%29.74 "HgN/A
3:20 PM48 °FLight rain. Mostly cloudy.12 mph66%29.74 "HgN/A
2:50 PM48 °FMostly cloudy.10 mph66%29.74 "HgN/A
2:20 PM48 °FLight rain. Mostly cloudy.10 mph66%29.74 "HgN/A
1:50 PM48 °FLight rain. Overcast.10 mph66%29.74 "HgN/A
1:20 PM50 °FRain. Mostly cloudy.9 mph67%29.74 "HgN/A
12:50 PM48 °FLight rain. Mostly cloudy.9 mph71%29.74 "HgN/A
12:20 PM50 °FOvercast.9 mph62%29.71 "HgN/A
11:50 AM52 °FOvercast.7 mph50%29.71 "HgN/A
11:20 AM52 °FLight rain. More clouds than sun.7 mph50%29.71 "HgN/A
10:50 AM52 °FCloudy.7 mph50%29.71 "HgN/A
10:20 AM50 °FLight rain. Overcast.7 mph58%29.71 "HgN/A
9:50 AM48 °FOvercast.3 mph62%29.71 "HgN/A
9:20 AM48 °FMostly cloudy.6 mph62%29.71 "HgN/A
Weather by CustomWeather, © 2014

See weather overview